Location: Ravencliff
(37.6982°N, 81.4812°W)
Time: 18:33:01
(UTC+00:00)

ACS3 Solar Sail - Pass Details

Date: 21 April 2026
Orbit: 894 x 947 km, 97.2° (Epoch: 12 May)

Event Time Altitude Azimuth Distance (km) Brightness Sun altitude
Rises 08:02:12 0° 353° (N) 3,550 5.2 -28.2°
Reaches altitude 10° 08:05:30 10° 333° (NNW) 2,613 4.2 -27.7°
Enters shadow 08:08:10 16° 306° (NW) 2,200 3.5 -27.3°
